Weather observations for the past three days for
Fernandina Beach Municipal Airport
Imperial (Metric)
Date Time (edt) Wind (mph) Vis. (mi.) Weather Sky Cond. Temperature (ºF) Relative Humidity Wind Chill (°F) Heat Index (°F) Pressure Precipitation (in)
Air Dwpt 6 hour altimeter (in) sea level (mb) 1 hr 3 hr 6 hr
Max. Min.
15 04:35 Calm 10.00 Fair CLR 73.4 71.6 94% 29.93 0.0
15 04:15 Calm 10.00 Fair CLR 73.4 71.6 94% 29.93 0.0
15 03:55 Calm 10.00 Fair CLR 73.4 71.6 94% 29.92 0.0
15 03:35 Calm 10.00 Fair CLR 73.4 71.6 94% 29.92 0.0
15 03:15 Calm 1.25 Fog/Mist VV007 75.2 73.4 94% 74 29.93 0.0
15 02:55 Calm 10.00 Fair CLR 75.2 73.4 94% 74 29.93 0.0
15 02:35 NE 3 10.00 Fair CLR 73.4 71.6 94% 29.92 0.0
15 02:15 Calm 10.00 Fair CLR 75.2 73.4 94% 74 29.93 0.0
15 01:55 Calm 10.00 Fair CLR 75.2 73.4 94% 74 29.94 0.0
15 01:35 Calm 10.00 Fair CLR 75.2 73.4 94% 74 29.94 0.0
15 01:15 Calm 10.00 Partly Cloudy SCT013 77 73.4 89% 78 29.95 0.0
15 00:55 Calm 10.00 Partly Cloudy SCT013 77 73.4 89% 78 29.95 0.0
15 00:35 Calm 10.00 Partly Cloudy SCT013 77 73.4 89% 78 29.95 0.0
15 00:15 Calm 10.00 Fair CLR 77 73.4 89% 78 29.95 0.0
14 23:55 Calm 10.00 Partly Cloudy SCT013 78.8 73.4 84% 82 29.95 0.0
14 23:35 SE 3 10.00 Partly Cloudy SCT013 78.8 73.4 84% 82 29.95 0.0
14 23:15 Calm 10.00 Partly Cloudy SCT015 78.8 73.4 84% 82 29.95 0.0
14 22:55 E 3 10.00 Partly Cloudy SCT015 78.8 73.4 84% 82 29.94 0.0
14 22:35 E 6 10.00 Fair CLR 78.8 73.4 84% 82 29.94 0.0
14 22:15 E 6 10.00 Partly Cloudy SCT015 78.8 73.4 84% 82 29.94 0.0
14 21:55 E 7 10.00 Partly Cloudy SCT015 78.8 73.4 84% 82 29.93 0.0
14 21:35 E 7 10.00 Fair CLR 78.8 73.4 84% 82 29.93 0.0
14 21:15 E 7 10.00 Fair CLR 78.8 73.4 84% 82 29.92 0.0
14 20:55 E 8 10.00 Partly Cloudy SCT015 78.8 73.4 84% 82 29.92 0.0
14 20:35 NE 6 10.00 Partly Cloudy SCT015 80.6 73.4 79% 85 29.92 0.0
14 20:15 NE 10 10.00 Fair CLR 80.6 73.4 79% 85 29.91 0.0
14 19:55 E 9 10.00 Fair CLR 82.4 73.4 74% 88 29.91 0.0
14 19:35 NE 10 10.00 Fair CLR 82.4 73.4 74% 88 29.91 0.0
14 19:15 E 9 10.00 Fair CLR 82.4 73.4 74% 88 29.91 0.0
14 18:55 E 10 10.00 Fair CLR 82.4 73.4 74% 88 29.91 0.0
14 18:35 E 12 10.00 Fair CLR 84.2 73.4 70% 91 29.9 0.0
14 18:15 E 10 10.00 Fair CLR 84.2 73.4 70% 91 29.9 0.0
14 17:55 NE 15 10.00 Fair CLR 84.2 73.4 70% 91 29.9 0.0
14 17:35 E 14 10.00 Partly Cloudy SCT017 84.2 73.4 70% 91 29.9 0.0
14 17:15 E 14 10.00 Partly Cloudy SCT017 SCT022 84.2 73.4 70% 91 29.91 0.0
14 16:55 E 14 10.00 Mostly Cloudy SCT017 BKN023 84.2 75.2 74% 92 29.91 0.0
14 16:35 E 16 G 20 10.00 Partly Cloudy SCT019 SCT024 86 75.2 70% 95 29.92 0.0
14 16:15 NE 16 10.00 Partly Cloudy SCT019 84.2 75.2 74% 92 29.92 0.0
14 15:55 NE 16 10.00 Mostly Cloudy SCT017 BKN023 84.2 73.4 70% 91 29.92 0.0
14 15:35 E 15 10.00 Partly Cloudy SCT017 86 75.2 70% 95 29.91 0.0
14 15:15 NE 16 10.00 Partly Cloudy SCT017 86 75.2 70% 95 29.91 0.0
14 14:55 E 17 10.00 Partly Cloudy SCT016 86 75.2 70% 95 29.91 0.0
14 14:35 NE 16 G 22 10.00 Partly Cloudy SCT018 SCT085 84.2 75.2 74% 92 29.92 0.0
14 14:15 NE 17 G 24 10.00 Mostly Cloudy BKN016 BKN022 BKN085 84.2 75.2 74% 92 29.92 0.0
14 13:55 E 17 G 23 10.00 Mostly Cloudy BKN016 BKN080 86 75.2 70% 95 29.92 0.0
14 13:35 NE 16 G 23 10.00 Mostly Cloudy SCT018 BKN080 84.2 75.2 74% 92 29.93 0.0
14 13:15 NE 16 G 22 10.00 Partly Cloudy SCT018 84.2 75.2 74% 92 29.92 0.0
14 12:55 NE 20 10.00 Partly Cloudy SCT018 SCT070 SCT080 84.2 75.2 74% 92 29.93 0.0
14 12:35 NE 16 G 21 10.00 Mostly Cloudy SCT016 BKN060 BKN080 84.2 75.2 74% 92 29.93 0.0
14 12:15 NE 16 G 21 10.00 Overcast SCT018 OVC060 82.4 73.4 74% 88 29.93 0.0
14 11:55 NE 16 G 22 10.00 Mostly Cloudy SCT018 BKN060 BKN075 82.4 75.2 79% 89 29.94 0.0
14 11:35 NE 16 G 20 10.00 Mostly Cloudy SCT018 SCT027 BKN075 84.2 75.2 74% 92 29.93 0.0
14 11:15 NE 13 10.00 Mostly Cloudy SCT018 BKN023 BKN042 82.4 73.4 74% 88 29.94 0.0
14 10:55 NE 12 10.00 Overcast BKN020 BKN029 OVC041 82.4 73.4 74% 88 29.94 0.0
14 10:35 NE 9 G 17 10.00 Mostly Cloudy BKN020 BKN024 BKN046 82.4 73.4 74% 88 29.94 0.0
14 10:15 N 12 10.00 Mostly Cloudy BKN018 BKN023 BKN046 82.4 75.2 79% 89 29.93 0.0
14 09:55 NE 10 10.00 Mostly Cloudy BKN018 BKN024 80.6 75.2 84% 86 29.93 0.0
14 09:35 N 12 G 17 10.00 Overcast SCT011 BKN016 OVC043 80.6 75.2 84% 86 29.93 0.0
14 09:15 N 10 7.00 Overcast SCT014 BKN039 OVC047 77 75.2 94% 78 29.94 0.0
14 08:55 N 10 3.50 Rain Fog/Mist SCT009 BKN014 OVC028 78.8 75.2 89% 82 29.93 0.0 0.03
14 08:35 N 7 10.00 Mostly Cloudy BKN010 BKN019 BKN040 78.8 75.2 89% 82 29.93 0.0
14 08:15 N 9 10.00 Mostly Cloudy SCT008 BKN018 78.8 75.2 89% 82 29.92 0.0
14 07:55 N 7 10.00 Partly Cloudy SCT018 SCT026 SCT034 78.8 75.2 89% 82 29.92 0.0
14 07:35 NW 7 10.00 Mostly Cloudy BKN020 BKN027 BKN043 78.8 75.2 89% 82 29.91 0.0
14 07:15 NW 6 10.00 Mostly Cloudy SCT020 BKN029 77 75.2 94% 78 29.91 0.0
14 06:55 N 5 10.00 Partly Cloudy SCT020 SCT027 SCT033 77 73.4 89% 78 29.9 0.0
14 06:35 N 3 10.00 Mostly Cloudy SCT018 BKN025 BKN033 78.8 73.4 84% 82 29.9 0.0
14 06:15 N 3 10.00 Mostly Cloudy SCT018 BKN027 BKN033 78.8 73.4 84% 82 29.9 0.0
14 05:55 N 3 10.00 Mostly Cloudy BKN018 BKN027 BKN032 77 73.4 89% 78 29.9 0.0
14 05:35 Calm 10.00 Partly Cloudy SCT018 77 73.4 89% 78 29.89 0.0
14 05:15 Calm 10.00 Partly Cloudy SCT016 77 73.4 89% 78 29.89 0.0
14 04:35 NE 6 10.00 Partly Cloudy SCT018 SCT027 78.8 73.4 84% 82 29.88 0.0
14 04:15 NE 6 10.00 Partly Cloudy SCT020 78.8 73.4 84% 82 29.88 0.0
14 03:55 NE 6 10.00 Partly Cloudy SCT020 SCT027 78.8 73.4 84% 82 29.88 0.0
14 03:35 NE 6 10.00 Mostly Cloudy SCT020 BKN027 BKN035 78.8 73.4 84% 82 29.88 0.0
14 03:15 NE 7 10.00 Mostly Cloudy SCT020 BKN030 BKN036 78.8 73.4 84% 82 29.88 0.0
14 02:55 NE 7 10.00 Overcast BKN018 BKN025 OVC038 80.6 73.4 79% 85 29.88 0.0
14 02:35 NE 6 10.00 Overcast BKN018 BKN025 OVC034 78.8 73.4 84% 82 29.88 0.0
14 02:15 NE 9 10.00 Mostly Cloudy BKN018 BKN023 BKN040 78.8 73.4 84% 82 29.89 0.0
14 01:55 NE 9 10.00 Mostly Cloudy SCT018 BKN024 BKN029 80.6 73.4 79% 85 29.89 0.0
14 01:35 NE 8 10.00 Partly Cloudy SCT018 SCT026 78.8 73.4 84% 82 29.9 0.0
14 01:15 NE 10 10.00 Partly Cloudy SCT017 SCT024 78.8 73.4 84% 82 29.91 0.0
14 00:55 NE 12 10.00 Partly Cloudy SCT017 SCT024 80.6 73.4 79% 85 29.91 0.0
14 00:35 E 10 10.00 Partly Cloudy SCT019 SCT024 SCT031 80.6 73.4 79% 85 29.91 0.0
14 00:15 NE 9 10.00 Partly Cloudy SCT017 SCT026 80.6 73.4 79% 85 29.91 0.0
13 23:55 NE 9 10.00 Partly Cloudy SCT017 SCT022 78.8 73.4 84% 82 29.92 0.0
13 23:35 NE 10 10.00 Mostly Cloudy BKN017 BKN026 BKN032 80.6 73.4 79% 85 29.91 0.0
13 22:55 NE 10 10.00 Mostly Cloudy BKN015 BKN023 80.6 73.4 79% 85 29.91 0.0
13 22:35 NE 12 10.00 Partly Cloudy SCT017 SCT023 80.6 73.4 79% 85 29.91 0.0
13 22:15 NE 10 10.00 Fair CLR 80.6 71.6 74% 85 29.91 0.0
13 21:55 NE 10 10.00 Fair CLR 80.6 71.6 74% 85 29.91 0.0
13 21:35 NE 13 10.00 Partly Cloudy SCT019 SCT024 80.6 73.4 79% 85 29.91 0.0
13 21:15 NE 14 10.00 Mostly Cloudy BKN017 BKN023 80.6 73.4 79% 85 29.91 0.0
13 20:55 NE 12 10.00 Mostly Cloudy BKN017 BKN028 80.6 73.4 79% 85 29.91 0.0
13 20:35 NE 13 10.00 Mostly Cloudy BKN017 BKN026 80.6 73.4 79% 85 29.9 0.0
13 20:15 NE 13 10.00 Partly Cloudy SCT019 80.6 73.4 79% 85 29.9 0.0
13 19:55 NE 10 G 18 10.00 Fair CLR 80.6 73.4 79% 85 29.9 0.0
13 19:35 NE 12 10.00 Partly Cloudy SCT019 82.4 73.4 74% 88 29.9 0.0
13 19:15 NE 14 G 18 10.00 Partly Cloudy SCT021 SCT025 82.4 73.4 74% 88 29.91 0.0
13 18:55 NE 17 10.00 Partly Cloudy SCT021 SCT025 82.4 73.4 74% 88 29.91 0.0
13 18:35 NE 13 10.00 Mostly Cloudy SCT019 BKN025 BKN032 82.4 73.4 74% 88 29.91 0.0
13 18:15 NE 15 10.00 Mostly Cloudy SCT019 BKN027 BKN032 82.4 73.4 74% 88 29.91 0.0
13 17:55 NE 16 10.00 Mostly Cloudy SCT019 BKN027 84.2 75.2 74% 92 29.9 0.0
13 17:35 E 15 10.00 Mostly Cloudy BKN019 BKN027 84.2 73.4 70% 91 29.9 0.0
13 17:15 NE 16 10.00 Mostly Cloudy BKN019 84.2 75.2 74% 92 29.9 0.0
13 16:55 NE 15 10.00 Partly Cloudy SCT017 84.2 75.2 74% 92 29.9 0.0
13 16:35 NE 10 G 18 10.00 Partly Cloudy SCT017 84.2 75.2 74% 92 29.9 0.0
13 16:15 NE 10 10.00 Mostly Cloudy BKN017 86 77 75% 97 29.9 0.0
13 15:55 NE 12 G 20 10.00 Partly Cloudy SCT017 86 75.2 70% 95 29.9 0.0
13 15:35 NE 13 10.00 Fair CLR 84.2 73.4 70% 91 29.9 0.0
13 15:15 NE 15 10.00 Partly Cloudy SCT019 86 75.2 70% 95 29.91 0.0
13 14:55 NE 15 G 23 10.00 Partly Cloudy SCT017 86 75.2 70% 95 29.91 0.0
13 14:35 NE 17 G 22 10.00 Mostly Cloudy BKN017 86 75.2 70% 95 29.92 0.0
13 14:15 NE 16 G 20 10.00 Partly Cloudy SCT017 86 75.2 70% 95 29.92 0.0
13 13:55 NE 20 G 24 10.00 Partly Cloudy SCT017 86 75.2 70% 95 29.92 0.0
13 13:35 NE 17 G 24 10.00 Fair CLR 86 75.2 70% 95 29.92 0.0
13 13:15 NE 17 G 24 10.00 Fair CLR 86 75.2 70% 95 29.91 0.0
13 12:55 NE 20 10.00 Partly Cloudy SCT025 86 73.4 66% 93 29.92 0.0
13 12:35 NE 16 G 23 10.00 Partly Cloudy SCT025 SCT030 86 73.4 66% 93 29.91 0.0
13 12:15 NE 14 G 17 10.00 Partly Cloudy SCT020 SCT027 86 73.4 66% 93 29.92 0.0
13 11:35 NE 15 G 20 10.00 Mostly Cloudy SCT021 SCT027 BKN034 87.8 75.2 66% 98 29.92 0.0
13 11:15 NE 14 10.00 Mostly Cloudy SCT021 BKN027 BKN035 86 75.2 70% 95 29.92 0.0
13 10:55 NE 14 10.00 Partly Cloudy SCT019 86 75.2 70% 95 29.92 0.0
13 10:35 NE 10 10.00 Partly Cloudy SCT021 SCT031 86 75.2 70% 95 29.92 0.0
13 10:15 E 10 G 16 10.00 Partly Cloudy SCT021 SCT035 SCT049 84.2 75.2 74% 92 29.92 0.0
13 09:55 NE 9 10.00 Partly Cloudy SCT019 SCT025 SCT042 84.2 75.2 74% 92 29.93 0.0
13 09:35 NE 9 10.00 Partly Cloudy SCT019 84.2 75.2 74% 92 29.92 0.0
13 09:15 NE 8 10.00 Mostly Cloudy SCT019 BKN025 BKN030 84.2 75.2 74% 92 29.92 0.0
13 08:55 NE 12 10.00 Mostly Cloudy BKN019 BKN026 84.2 75.2 74% 92 29.91 0.0
13 08:35 NE 9 10.00 Partly Cloudy SCT019 SCT026 82.4 75.2 79% 89 29.91 0.0
13 08:15 NE 9 10.00 Partly Cloudy SCT019 82.4 75.2 79% 89 29.9 0.0
13 07:55 NE 10 10.00 Fair CLR 82.4 73.4 74% 88 29.9 0.0
13 07:35 NE 8 10.00 Fair CLR 80.6 75.2 84% 86 29.89 0.0
13 07:15 NE 6 10.00 Fair CLR 80.6 75.2 84% 86 29.88 0.0
13 06:55 NE 5 10.00 Partly Cloudy SCT015 78.8 75.2 89% 82 29.88 0.0
13 06:35 NE 6 10.00 Partly Cloudy SCT015 78.8 73.4 84% 82 29.88 0.0
13 06:15 NE 8 10.00 Partly Cloudy SCT014 SCT090 78.8 75.2 89% 82 29.87 0.0
13 05:55 NE 8 10.00 Mostly Cloudy BKN090 78.8 75.2 89% 82 29.87 0.0
13 05:35 NE 7 10.00 Partly Cloudy SCT015 SCT021 SCT090 78.8 73.4 84% 82 29.86 0.0
13 05:15 NE 9 10.00 Mostly Cloudy SCT015 BKN025 BKN033 80.6 75.2 84% 86 29.86 0.0
13 04:55 NE 9 10.00 Mostly Cloudy SCT017 BKN025 BKN033 80.6 75.2 84% 86 29.87 0.0
13 04:35 NE 8 10.00 Mostly Cloudy SCT015 BKN023 BKN028 80.6 75.2 84% 86 29.87 0.0
13 04:15 NE 7 10.00 Mostly Cloudy SCT015 BKN022 BKN029 80.6 75.2 84% 86 29.87 0.0
13 03:55 NE 6 10.00 Mostly Cloudy BKN017 BKN022 80.6 75.2 84% 86 29.87 0.0
13 03:35 NE 7 10.00 Mostly Cloudy SCT015 BKN020 80.6 75.2 84% 86 29.86 0.0
13 03:15 NE 7 10.00 Fair CLR 78.8 75.2 89% 82 29.86 0.0
13 02:55 NE 6 10.00 Partly Cloudy SCT015 BKN022 SCT027 80.6 75.2 84% 86 29.86 0.0
13 02:35 N 6 10.00 Mostly Cloudy BKN017 BKN025 80.6 75.2 84% 86 29.87 0.0
13 02:15 Calm 10.00 Mostly Cloudy SCT015 BKN020 BKN026 80.6 75.2 84% 86 29.88 0.0
13 01:55 NE 6 10.00 Mostly Cloudy BKN017 BKN023 80.6 75.2 84% 86 29.89 0.0
13 01:35 E 5 10.00 Mostly Cloudy BKN015 80.6 75.2 84% 86 29.9 0.0
13 01:15 E 8 10.00 Mostly Cloudy BKN015 80.6 75.2 84% 86 29.9 0.0
13 00:55 E 9 10.00 Overcast BKN015 OVC020 80.6 75.2 84% 86 29.91 0.0
13 00:35 E 10 10.00 Mostly Cloudy BKN015 80.6 75.2 84% 86 29.91 0.0
13 00:15 E 12 10.00 Partly Cloudy SCT017 SCT021 80.6 75.2 84% 86 29.9 0.0
12 23:55 E 12 10.00 Mostly Cloudy BKN015 BKN022 80.6 73.4 79% 85 29.91 0.0
12 23:35 E 13 10.00 Mostly Cloudy BKN015 BKN022 80.6 75.2 84% 86 29.91 0.0
12 23:15 E 14 10.00 Mostly Cloudy BKN013 BKN022 80.6 75.2 84% 86 29.91 0.0
12 22:55 NE 10 10.00 Overcast BKN013 BKN020 OVC026 80.6 75.2 84% 86 29.91 0.0
12 22:35 NE 9 10.00 Overcast BKN013 OVC021 80.6 77 89% 87 29.91 0.0
12 22:15 NE 5 10.00 Overcast OVC013 80.6 75.2 84% 86 29.92 0.0
12 21:55 E 10 10.00 Overcast BKN013 OVC018 80.6 75.2 84% 86 29.92 0.0
12 21:35 E 13 10.00 Mostly Cloudy BKN013 BKN018 80.6 75.2 84% 86 29.91 0.0
12 21:15 E 12 10.00 Mostly Cloudy BKN013 BKN018 80.6 75.2 84% 86 29.92 0.0
12 20:55 NE 14 10.00 Mostly Cloudy BKN015 BKN019 80.6 75.2 84% 86 29.92 0.0
12 20:35 E 14 10.00 Mostly Cloudy BKN015 80.6 75.2 84% 86 29.91 0.0
12 20:15 E 15 G 20 10.00 Mostly Cloudy BKN015 80.6 75.2 84% 86 29.91 0.0
12 19:55 E 14 10.00 Mostly Cloudy BKN017 82.4 75.2 79% 89 29.92 0.0
12 19:35 E 13 10.00 Mostly Cloudy BKN015 82.4 75.2 79% 89 29.92 0.0
12 19:15 E 10 10.00 Partly Cloudy SCT015 82.4 75.2 79% 89 29.92 0.0
12 18:55 NE 14 10.00 Partly Cloudy SCT015 82.4 75.2 79% 89 29.92 0.0
12 18:35 E 16 10.00 Partly Cloudy SCT015 82.4 75.2 79% 89 29.91 0.0
12 18:15 E 15 10.00 Partly Cloudy SCT017 82.4 75.2 79% 89 29.92 0.0
12 17:55 E 16 10.00 Partly Cloudy SCT017 82.4 75.2 79% 89 29.92 0.0
12 17:35 E 14 10.00 Fair CLR 84.2 75.2 74% 92 29.94 0.0
12 17:15 NE 14 10.00 Partly Cloudy SCT026 82.4 75.2 79% 89 29.93 0.0
12 16:55 NE 15 10.00 Fair CLR 84.2 75.2 74% 92 29.93 0.0
12 16:35 NE 15 G 22 10.00 Fair CLR 86 75.2 70% 95 29.93 0.0
12 16:15 NE 15 10.00 Fair CLR 86 73.4 66% 93 29.93 0.0
12 15:55 E 20 10.00 Fair CLR 86 73.4 66% 93 29.94 0.0
12 15:35 E 18 G 22 10.00 Partly Cloudy SCT017 86 75.2 70% 95 29.95 0.0
12 15:15 E 17 10.00 Partly Cloudy SCT015 86 75.2 70% 95 29.95 0.0
12 14:55 NE 17 G 22 10.00 Partly Cloudy SCT015 SCT028 86 75.2 70% 95 29.95 0.0
12 14:35 E 17 10.00 Partly Cloudy SCT015 SCT028 86 77 75% 97 29.96 0.0
12 14:15 NE 15 10.00 Partly Cloudy SCT013 86 77 75% 97 29.95 0.0
12 13:55 E 15 10.00 Partly Cloudy SCT013 SCT085 86 77 75% 97 29.95 0.0
12 13:35 NE 15 10.00 Mostly Cloudy BKN013 BKN024 BKN085 86 77 75% 97 29.94 0.0
12 13:15 E 16 10.00 Mostly Cloudy BKN013 BKN019 BKN026 86 77 75% 97 29.95 0.0
12 12:55 E 16 10.00 Mostly Cloudy SCT013 BKN019 BKN040 84.2 77 79% 94 29.95 0.0
12 12:35 E 16 10.00 Partly Cloudy SCT013 86 77 75% 97 29.95 0.0
12 12:15 NE 16 10.00 Partly Cloudy SCT013 84.2 77 79% 94 29.94 0.0
12 11:55 E 16 10.00 Partly Cloudy SCT015 86 77 75% 97 29.94 0.0
12 11:35 E 15 G 20 10.00 Light Rain SCT013 BKN019 BKN027 86 77 75% 97 29.94 0.0
12 11:15 E 14 7.00 Partly Cloudy SCT013 SCT022 84.2 77 79% 94 29.94 0.0
12 10:55 E 15 10.00 Mostly Cloudy BKN015 BKN022 BKN036 86 77 75% 97 29.94 0.0
12 10:35 E 12 10.00 Overcast BKN013 BKN024 OVC037 84.2 75.2 74% 92 29.94 0.0
12 10:15 E 12 10.00 Overcast OVC013 82.4 77 84% 91 29.93 0.0
12 09:55 E 10 10.00 Mostly Cloudy BKN015 BKN032 BKN038 82.4 75.2 79% 89 29.94 0.0
12 09:35 E 9 10.00 Partly Cloudy SCT013 SCT019 82.4 75.2 79% 89 29.94 0.0
12 09:15 E 9 10.00 Partly Cloudy SCT013 82.4 75.2 79% 89 29.93 0.0
12 08:55 E 7 10.00 Partly Cloudy SCT013 82.4 75.2 79% 89 29.93 0.0
12 08:35 E 7 10.00 Partly Cloudy SCT015 SCT020 82.4 75.2 79% 89 29.93 0.0
12 08:15 E 7 10.00 Partly Cloudy SCT015 SCT021 82.4 75.2 79% 89 29.92 0.0
12 07:55 E 6 10.00 Partly Cloudy SCT018 80.6 75.2 84% 86 29.92 0.0
12 07:35 Calm 10.00 Partly Cloudy SCT014 SCT020 78.8 75.2 89% 82 29.91 0.0
12 07:15 Calm 10.00 Fair CLR 78.8 75.2 89% 82 29.91 0.0
12 06:55 Calm 10.00 Mostly Cloudy BKN016 77 73.4 89% 78 29.91 0.0
12 06:35 Calm 3.50 Fog/Mist BKN014 77 73.4 89% 78 29.9 0.0
12 06:15 SE 3 0.75 Fog/Mist VV005 75.2 73.4 94% 74 29.9 0.0
12 05:55 Calm 10.00 Fair CLR 77 73.4 89% 78 29.89 0.0
12 05:35 Calm 10.00 Fair CLR 77 73.4 89% 78 29.89 0.0
12 05:15 Calm 10.00 Fair CLR 77 73.4 89% 78 29.89 0.0
Date Time (edt) Wind (mph) Vis. (mi.) Weather Sky Cond. Air Dwpt Max. Min. Relative Humidity Wind Chill (°F) Heat Index (°F) altimeter (in) sea level (mb) 1 hr 3 hr 6 hr
6 hour
Temperature (ºF) Pressure Precipitation (in)